sat.trackr.live / text

‹ back to catalog

STARLINK-31217

NORAD 59036 · 2024-038P

PAYLOAD ACTIVE UNKNOWN

§ Identity

Operator
Country
US
Launch date
2024-02-25
Launch site
AFETR
Launch vehicle
Mass (kg)
RCS (m²)

Purposes: comms

External: N2YO · Heavens-Above · Gunter

§ Orbital elements

Epoch: 2026-09-20T02:30:46.952640Z

Period
94.27 min
Inclination
43.0010°
Eccentricity
0.0001184
Mean motion
15.27575714 rev/d
Perigee alt
482.2 km
Apogee alt
483.9 km
Semi-major
6,861.2 km
B*
9.0305e-6
RAAN
271.2635°
Arg perigee
266.4136°
Mean anomaly
93.6580°
Rev number
14,567

§ Raw data

STARLINK-312171 59036U 24038P   26263.10471010 -.00000014  00000+0  90305-5 0  99902 59036  43.0010 271.2635 0001184 266.4136  93.6580 15.27575714145679

JSON: /api/v1/satellites/59036 · /tle

For live sub-satellite position, see the globe view (requires WebGL).

§ Visibility from observer

Set your observer location to see the next 7 days of passes ≥ 10°. The values pass through the URL so the page stays shareable.

No JS? Fill the form by hand. The geolocation button needs JavaScript.